Location: Ellerstadt
(49.4644°N, 8.2615°E)
Time: 00:25:29
(UTC+00:00)

IRIDIUM 100 - Pass Details

Date: 04 October 2021
Orbit: 776 x 779 km, 86.4° (Epoch: 19 October)

Event Time Altitude Azimuth Distance (km) Brightness Sun altitude
Exits shadow 00:50:00 14° 356° (N) 2,099 ? -40.7°
Drops below altitude 10° 00:50:38 10° 358° (N) 2,341 ? -40.6°
Sets 00:53:02 0° 2° (N) 3,273 ? -40.4°
